K0VXP-1 Weather Reports


Display with metric or nautical units.
time (UTC)temp
F
wind
direction
speed
MPH
gust
MPH
rain 1hr
in
rain 24hr
in
rain mn
in
humidity
%
barometer
mb
20240530024515 57 59 6.0 9.0 0.00 0.00 0.00 42 1020.2
20240530023015 62 69 4.0 7.0 0.00 0.00 0.00 34 1020.2
20240530021515 64 14 2.0 4.0 0.00 0.00 0.00 35 1020.0
20240530020016 65 24 2.0 11.0 0.00 0.00 0.00 33 1020.0
20240530014514 65 90 3.0 8.0 0.00 0.00 0.00 32 1019.9
20240530013018 64 44 9.0 15.0 0.00 0.00 0.00 33 1019.9
20240530011520 67 55 7.0 11.0 0.00 0.00 0.00 31 1020.2
20240530010021 67 51 5.0 9.0 0.00 0.00 0.00 31 1020.2
20240530004514 65 5 2.0 9.0 0.00 0.00 0.00 31 1020.2
20240530003017 65 42 2.0 5.0 0.00 0.00 0.00 33 1020.2
20240530001513 67 340 0.0 9.0 0.00 0.00 0.00 28 1020.2
20240530000017 67 259 5.0 11.0 0.00 0.00 0.00 27 1020.2
20240529234531 66 265 6.0 16.0 0.00 0.00 0.00 25 1020.1
20240529233015 67 0 2.0 4.0 0.00 0.00 0.00 31 1020.2
20240529231519 69 88 2.0 7.0 0.00 0.00 0.00 25 1020.1
20240529230016 68 186 4.0 9.0 0.00 0.00 0.00 28 1020.4
20240529224519 70 231 1.0 11.0 0.00 0.00 0.00 26 1020.4
20240529223015 72 225 6.0 16.0 0.00 0.00 0.00 27 1020.4
20240529221532 70 273 8.0 15.0 0.00 0.00 0.00 25 1020.4
20240529220021 69 200 10.0 17.0 0.00 0.00 0.00 31 1020.7
20240529214515 71 101 5.0 14.0 0.00 0.00 0.00 25 1020.2
20240529213014 73 282 3.0 11.0 0.00 0.00 0.00 25 1020.5
20240529211515 74 187 2.0 11.0 0.00 0.00 0.00 26 1020.8
20240529210013 71 247 4.0 9.0 0.00 0.00 0.00 26 1021.0
20240529204512 71 191 2.0 7.0 0.00 0.00 0.00 24 1021.3
20240529203014 71 139 4.0 14.0 0.00 0.00 0.00 25 1021.6
20240529201512 71 126 8.0 14.0 0.00 0.00 0.00 30 1022.0
20240529200021 69 13 5.0 10.0 0.00 0.00 0.00 32 1022.2
20240529194517 67 39 6.0 18.0 0.00 0.00 0.00 37 1022.6
20240529193016 62 337 5.0 27.0 0.00 0.00 0.00 37 1022.9
20240529191515 61 252 14.0 26.0 0.00 0.00 0.00 39 1024.0
20240529190012 65 261 9.0 23.0 0.00 0.00 0.00 30 1022.9
20240529184515 65 308 8.0 23.0 0.00 0.00 0.00 32 1022.6
20240529183016 63 313 6.0 16.0 0.00 0.00 0.00 31 1022.7
20240529181529 64 237 9.0 18.0 0.00 0.00 0.00 31 1024.0
20240529180030 64 40 6.0 10.0 0.00 0.00 0.00 34 1022.9
20240529174513 63 189 8.0 20.0 0.00 0.00 0.00 34 1024.5
20240529173017 61 211 4.0 17.0 0.00 0.00 0.00 46 1024.2
20240529171522 65 236 4.0 10.0 0.00 0.00 0.00 44 1023.7
20240529170017 67 242 4.0 8.0 0.00 0.00 0.00 42 1023.4
20240529164515 66 284 3.0 7.0 0.00 0.00 0.00 47 1023.6
20240529163019 63 176 1.0 5.0 0.00 0.00 0.00 49 1023.7
20240529161519 61 242 1.0 4.0 0.00 0.00 0.00 48 1023.9
20240529160016 61 299 1.0 8.0 0.00 0.00 0.00 49 1024.2
20240529154518 58 247 2.0 8.0 0.00 0.00 0.00 52 1024.4
20240529153021 57 222 3.0 6.0 0.00 0.00 0.00 53 1024.4
20240529151525 56 214 3.0 6.0 0.00 0.00 0.00 54 1024.5
20240529150018 54 194 2.0 5.0 0.00 0.00 0.00 54 1024.6
20240529144515 53 215 2.0 7.0 0.00 0.00 0.00 55 1024.7
20240529143013 53 211 2.0 5.0 0.00 0.00 0.00 56 1024.7
20240529141520 53 238 3.0 5.0 0.00 0.00 0.00 56 1024.8
20240529140029 52 213 2.0 5.0 0.00 0.00 0.00 57 1024.8
20240529134514 53 235 2.0 4.0 0.00 0.00 0.00 52 1024.9
20240529133016 51 12 2.0 7.0 0.00 0.00 0.00 56 1024.7
20240529131514 48 21 4.0 7.0 0.00 0.00 0.00 59 1024.8
20240529130029 47 30 4.0 8.0 0.00 0.00 0.00 61 1025.0
20240529124515 45 20 3.0 6.0 0.00 0.00 0.00 65 1025.0
20240529123013 43 332 4.0 6.0 0.00 0.00 0.00 65 1025.0
20240529121514 43 313 3.0 7.0 0.00 0.00 0.00 64 1024.9
20240529120019 42 339 4.0 8.0 0.00 0.00 0.00 64 1024.9
20240529114520 45 9 2.0 4.0 0.00 0.00 0.00 57 1024.9
20240529113024 46 143 2.0 6.0 0.00 0.00 0.00 58 1024.9
20240529111517 45 144 3.0 6.0 0.00 0.00 0.00 60 1024.9
20240529110013 43 105 3.0 7.0 0.00 0.00 0.00 62 1024.9
20240529104519 43 90 3.0 8.0 0.00 0.00 0.00 64 1024.7
20240529103017 43 77 5.0 8.0 0.00 0.00 0.00 63 1024.7
20240529101521 44 56 3.0 5.0 0.00 0.00 0.00 60 1024.9
20240529100015 45 32 2.0 5.0 0.00 0.00 0.00 58 1025.0
20240529094519 47 76 4.0 7.0 0.00 0.00 0.00 55 1024.9
20240529093018 47 224 1.0 5.0 0.00 0.00 0.00 55 1024.9
20240529091534 47 196 2.0 5.0 0.00 0.00 0.00 55 1025.0
20240529090016 47 321 1.0 10.0 0.00 0.00 0.00 57 1024.9
20240529084517 49 71 4.0 11.0 0.00 0.00 0.00 55 1024.6
20240529083021 47 73 10.0 14.0 0.00 0.00 0.00 60 1024.4
20240529081525 43 94 10.0 13.0 0.00 0.00 0.00 66 1024.5
20240529080026 46 30 2.0 8.0 0.00 0.00 0.00 61 1025.5
20240529074515 45 333 4.0 5.0 0.00 0.00 0.00 60 1025.5
20240529073016 45 15 5.0 8.0 0.00 0.00 0.00 60 1024.9
20240529071519 46 26 3.0 7.0 0.00 0.00 0.00 58 1024.8
20240529070020 46 22 2.0 5.0 0.00 0.00 0.00 58 1024.9
20240529064513 46 14 3.0 5.0 0.00 0.00 0.00 58 1025.0
20240529063020 47 351 4.0 5.0 0.00 0.00 0.00 56 1025.2
20240529061513 49 5 2.0 4.0 0.00 0.00 0.00 53 1025.2
20240529060015 50 360 3.0 6.0 0.00 0.00 0.00 51 1025.5
20240529054519 52 333 2.0 4.0 0.00 0.00 0.00 47 1025.4
20240529053022 53 342 1.0 3.0 0.00 0.00 0.00 46 1025.4
20240529051516 51 61 3.0 5.0 0.00 0.00 0.00 48 1025.7
20240529050012 52 57 4.0 6.0 0.00 0.00 0.00 47 1025.5
20240529044515 52 92 4.0 9.0 0.00 0.00 0.00 47 1025.6
20240529043034 52 61 5.0 10.0 0.00 0.00 0.00 47 1025.5
20240529041520 53 74 6.0 13.0 0.00 0.00 0.00 47 1025.4
20240529040016 53 61 6.0 10.0 0.00 0.00 0.00 47 1025.2
20240529035008 54 74 6.0 13.0 0.00 0.00 0.00 46 1025.1
20240529030841 59 134 3.0 5.0 0.00 0.00 0.00 39 1024.7